Weather in Net'inka

Russia / Bryansk Oblast     53°20′52″N   34°11′41″E
temp.,
°C
wind,
m/s
gust,
m/s
humid.,
%
clouds,
%
prec.,
mm/h
press.,
hPa
HPBL,
m
28 june, tue
tue2800:00+21nnw22846 0.0 102014
03:00+20n23920 0.0 102037
06:00+21n23881 0.0 101972
09:00+26nne347057 0.0 1019392
12:00+30nne3545100 0.0 10182242
15:00+30nne45425 0.0 10182494
18:00+28ne47559 0.0 1017423
21:00+21e368412 0.1 1019122
29 june, wed
wed2900:00+19e3793100 0.0 1020150
03:00+17e369559 0.0 1020136
06:00+17e3789100 0.0 1021190
09:00+21e356491 0.1 1020467
12:00+23e4454100 0.1 1020935
15:00+25ese3354100 0.1 10191391
18:00+21se3675100 0.3 1018236
21:00+18e2386100 0.7 101841
30 june, thu
thu3000:00+15e2285100 0.1 101932
03:00+13ene23930 0.1 101957
06:00+14ene26890 0.0 1019149
09:00+19ene35620 0.0 1019635
12:00+23ne45450 0.0 10191552
15:00+24ne34403 0.0 10181857
18:00+23ne455265 0.0 1018650
21:00+17e22735 0.0 101811
1 july, fri
fri100:00+15nne11832 0.0 102011
03:00+13ne22860 0.0 102011
06:00+14n23820 0.0 102164
09:00+20nne34580 0.0 1021434
12:00+24nne35431 0.0 10211919
15:00+25ne45405 0.0 10202269
18:00+25ne345210 0.0 1020860
21:00+19ene116788 0.0 102011
2 july, sat
sat200:00+16sse23840 0.0 102129
03:00+14sse22890 0.0 102115
06:00+15sw00865 0.0 102230
09:00+21n22650 0.0 1022402
12:00+26nnw23450 0.0 10211521
15:00+27w23405 0.0 10202134
18:00+25w476078 0.0 1019551
21:00+20wnw348113 0.1 101956